Regional Weather Roundup
Issued by NWS Cleveland, OH

Home | Current Version | Previous Version | Graphics & Text | Print | Product List | Glossary On
Versions: 1 2 3 4 5 6 7 8 9 10 11 12 13 14 15 16 17 18 19 20 21 22 23 24 25 26 27 28 29 30 31 32 33 34 35 36 37 38 39 40 41 42 43 44 45 46 47 48 49 50
000
ASUS41 KCLE 292010
RWRCLE
OHIO REGIONAL WEATHER ROUNDUP
NATIONAL WEATHER SERVICE WILMINGTON, OH
400 PM EDT TUE JUL 29 2014

NOTE: "FAIR" INDICATES FEW OR NO CLOUDS BELOW 12,000 FEET WITH NO
SIGNIFICANT WEATHER AND/OR OBSTRUCTIONS TO VISIBILITY.

OHZ001>008-015>018-024>027-034-035-043-044-292100-
   NORTHWEST OHIO

CITY           SKY/WX    TMP DP  RH WIND       PRES   REMARKS
DEFIANCE       CLOUDY    71  52  50 SW6       30.01F
FINDLAY        PTSUNNY   73  53  49 W10       30.01S
TOLEDO EXPRESS PTSUNNY   72  51  47 SW12      29.99F
TOLEDO METCALF PTSUNNY   72  51  47 SW13      30.00F
LIMA           PTSUNNY   71  54  54 VRB6      30.03F
$$

OHZ009>014-019>023-028>033-038-089-292100-
   NORTHEAST OHIO

CITY           SKY/WX    TMP DP  RH WIND       PRES   REMARKS
CLE-HOPKINS    MOSUNNY   69  50  50 W5        30.02S
CLE-LAKEFRONT  SUNNY     68  51  54 W8        29.99F
CUY CO. ARPT   MOSUNNY   68  54  60 W12       30.01F
LORAIN-ELYRIA  PTSUNNY   72  51  47 VRB6      30.01F
ASHTABULA      MOSUNNY   67  51  56 W13       30.00S
AKRON-CANTON   PTSUNNY   70  48  45 W8G16     30.01F
WOOSTER        PTSUNNY   69  51  52 W9        30.03S
MANSFIELD      PTSUNNY   68  49  50 VRB7      30.04S
YOUNGSTOWN     PTSUNNY   65  51  60 SW5       30.00S
$$

OHZ042-051>053-060>062-070>072-077>081-292100-
  SOUTHWEST OHIO

CITY           SKY/WX    TMP DP  RH WIND       PRES   REMARKS
CINC-COVINGTON MOSUNNY   72  51  47 N9        30.07F
CINC-LUNKEN    SUNNY     72  50  45 NW6       30.06F
HAMILTON       PTSUNNY   72  54  53 VRB5      30.07F
DAYTON         PTSUNNY   71  52  50 CALM      30.06F
WRIGHT-PAT AFB PTSUNNY   70  53  55 VRB1      30.05F
DAYTON GENERAL MOSUNNY   71  51  49 MISG      30.06S
WILMINGTON     PTSUNNY   68  49  50 VRB7      30.06S
$$

OHZ036-037-039>041-045>050-054>059-063>069-073>076-082>088-292100-
  CENTRAL AND SOUTHEAST OHIO

CITY           SKY/WX    TMP DP  RH WIND       PRES   REMARKS
COLUMBUS       PTSUNNY   72  48  42 VRB6      30.03F
OSU AIRPORT    MOSUNNY   69  48  47 NW6       30.04S
BOLTON FIELD   PTSUNNY   68  52  56 W8        30.05S
RICKENBACK AFB PTSUNNY   73  42  33 W7        30.03F
NEWARK         MOSUNNY   69  47  45 W6        30.03F
MARION         PTSUNNY   68  50  52 W8        30.04S
LANCASTER      MOSUNNY   69  52  54 NW3       30.04S
ZANESVILLE     PTSUNNY   68  49  50 VRB6      30.03S
NEW PHILLY     MOSUNNY   69  51  52 NW8       30.02F
$$



USA.gov is the U.S. government's official web portal to all federal, state and local government web resources and services.